Stations météo

Publicité
Le Touquet, France (7003): Température de l'air & dewpoint: 24.03.2017 14:00:00 - 30.03.2017 14:00:00 (CEST)Le Touquet, France (7003): Température de l'air 5cm: 24.03.2017 14:00:00 - 30.03.2017 14:00:00 (CEST)Le Touquet, France (7003): Vitesse du vent & gusts: 24.03.2017 14:00:00 - 30.03.2017 14:00:00 (CEST)Le Touquet, France (7003): Direction du vent: 24.03.2017 14:00:00 - 30.03.2017 14:00:00 (CEST)Le Touquet, France (7003): reduced air pressure: 24.03.2017 14:00:00 - 30.03.2017 14:00:00 (CEST)Le Touquet, France (7003): visibility: 24.03.2017 14:00:00 - 30.03.2017 14:00:00 (CEST)Le Touquet, France (7003): Ensoleillement: 24.03.2017 14:00:00 - 30.03.2017 14:00:00 (CEST)Le Touquet, France (7003): Quantités de précipitations: 24.03.2017 14:00:00 - 30.03.2017 14:00:00 (CEST)
Date & Time tt [°C] td [°C] tt 5cm [°C] ff [km/h] ff [knt] fx [km/h] fx [knt] dd ppp [hPa] vv [km] sd [min] rr [mm]
30.03.2017 14:00:00 21,4 9,3 24,0 17 9 30 16 SSE 1021,6 37 60 0,0
30.03.2017 13:00:00 20,5 9,1 22,7 16 9 30 16 S 1022,4 20 60 0,0
30.03.2017 12:00:00 19,4 9,6 21,4 15 8 26 14 S 1022,9 45 60 0,0
30.03.2017 11:00:00 17,5 8,9 17,3 10 5 18 10 SSE 1023,4 43 57 0,0
30.03.2017 10:00:00 14,9 9,3 14,3 11 6 16 9 SE 1023,5 20 56 0,0
30.03.2017 09:00:00 13,0 8,7 10,9 9 5 12 7 SE 1023,6 52 56 0,0
30.03.2017 08:00:00 11,9 8,0 9,8 9 5 16 9 SSE 1023,6 35 3 0,0
30.03.2017 07:00:00 11,4 8,1 9,0 8 5 13 7 SSE 1023,4 20 0 0,0
30.03.2017 06:00:00 11,1 8,0 9,4 8 5 14 8 SE 1023,5 37 0 0,0
30.03.2017 05:00:00 13,2 8,9 11,6 8 4 14 8 SSE 1023,5 49 0 0,0
30.03.2017 04:00:00 13,1 8,8 11,4 8 4 12 6 SSE 1023,4 45 0 0,0
30.03.2017 03:00:00 12,9 8,8 10,7 8 4 14 8 SSE 1023,7 45 0 0,0
30.03.2017 02:00:00 12,6 8,3 10,2 8 4 14 8 SSE 1024,1 44 0 0,0
30.03.2017 01:00:00 12,8 8,3 9,2 8 4 12 7 SSE 1024,3 30 0 0,0
30.03.2017 00:00:00 11,8 8,3 10,1 8 4 12 7 SE 1024,5 27 0 0,0
29.03.2017 23:00:00 12,3 8,4 10,7 10 5 12 6 SE 1024,5 34 0 0,0
29.03.2017 22:00:00 11,9 8,2 8,4 6 3 11 6 SE 1024,6 36 0 0,0
29.03.2017 21:00:00 12,6 8,3 8,5 2 1 6 4 SE 1024,3 42 0 0,0
29.03.2017 20:00:00 14,6 8,5 12,9 4 2 7 4 ESE 1024,1 60 5 0,0
29.03.2017 19:00:00 15,0 8,9 15,1 3 2 23 13 WSW 1024,3 60 0 0,0
29.03.2017 18:00:00 16,2 6,6 17,3 9 5 22 12 WSW 1024,4 60 0 0,0
29.03.2017 17:00:00 16,4 6,8 16,9 11 6 26 14 SW 1024,5 60 0 0,0
29.03.2017 16:00:00 16,2 6,0 16,2 16 9 29 16 SW 1024,7 51 0 0,0
29.03.2017 15:00:00 15,7 6,1 16,6 16 8 29 16 SW 1025,1 58 0 0,0
29.03.2017 14:00:00 14,9 6,7 16,1 18 10 36 19 SW 1025,6 52 0 0,0
29.03.2017 13:00:00 14,7 7,5 15,2 20 11 32 18 SW 1025,7 20 0 0,0
29.03.2017 12:00:00 13,8 7,8 12,0 18 10 32 17 SW 1026,0 42 0 0,0
29.03.2017 11:00:00 11,6 8,4 11,6 16 8 29 15 SW 1025,8 37 0 0,0
29.03.2017 10:00:00 11,6 8,3 11,6 14 8 31 17 SW 1025,4 35 0 0,0
29.03.2017 09:00:00 11,5 7,8 10,9 16 9 32 17 SW 1024,9 20 0 0,0
29.03.2017 08:00:00 11,1 8,0 9,8 14 7 31 17 SW 1024,4 36 0 0,0
29.03.2017 07:00:00 10,4 8,5 9,9 19 10 39 21 SW 1024,3 9 0 0,0
29.03.2017 06:00:00 11,5 7,0 10,9 17 9 32 17 SW 1023,9 43 0 0,0
29.03.2017 05:00:00 11,4 7,3 10,0 18 10 35 19 SSW 1023,7 41 0 0,0
29.03.2017 04:00:00 11,1 7,2 10,3 16 9 32 17 SSW 1023,7 38 0 0,0
29.03.2017 03:00:00 11,6 7,3 10,6 17 9 34 18 SW 1024,0 40 0 0,0
29.03.2017 02:00:00 11,9 7,4 9,4 16 9 28 15 SSW 1024,2 40 0 0,0
29.03.2017 01:00:00 10,7 7,8 7,2 8 5 15 8 S 1024,6 36 0 0,0
29.03.2017 00:00:00 9,2 6,6 7,9 5 3 15 8 SSE 1024,2 19 0 0,0
28.03.2017 23:00:00 10,4 7,6 8,8 7 4 16 9 S 1024,3 19 0 0,0
28.03.2017 22:00:00 10,7 8,3 9,2 7 4 13 7 SSW 1024,0 18 0 0,0
28.03.2017 21:00:00 11,0 8,0 9,7 6 4 16 9 SW 1023,5 16 0 0,0
28.03.2017 20:00:00 12,0 8,3 11,4 9 5 18 10 W 1023,1 19 29 0,0
28.03.2017 19:00:00 13,3 8,8 12,6 10 5 27 15 W 1023,1 19 27 0,0
28.03.2017 18:00:00 12,4 8,5 14,0 15 8 35 19 W 1023,1 15 54 0,0
28.03.2017 17:00:00 12,8 9,1 14,8 16 9 29 16 WSW 1023,1 15 36 0,0
28.03.2017 16:00:00 11,9 9,1 13,0 20 11 42 23 WSW 1023,3 12 32 0,0
28.03.2017 15:00:00 12,3 8,8 15,0 20 11 35 19 WSW 1023,0 13 48 0,0
28.03.2017 14:00:00 12,4 8,7 17,1 21 11 40 22 WSW 1022,9 13 60 0,0
28.03.2017 13:00:00 12,5 7,6 17,6 22 12 39 21 WSW 1022,8 13 60 0,0
28.03.2017 12:00:00 13,5 7,5 17,3 20 11 36 19 WSW 1022,2 13 60 0,0
28.03.2017 11:00:00 13,6 7,1 12,5 18 10 30 16 SW 1021,4 11 60 0,0
28.03.2017 10:00:00 9,9 5,5 8,1 7 4 12 6 SSE 1021,2 8 55 0,0
28.03.2017 09:00:00 6,9 4,0 - 9 5 13 7 SE 1020,6 7 - 0,0
28.03.2017 08:00:00 5,2 2,9 3,9 9 5 12 7 SSE 1020,3 7 0 0,0
28.03.2017 07:00:00 5,7 3,0 4,2 7 4 10 5 SSE 1020,1 7 0 0,0
28.03.2017 06:00:00 6,2 3,4 4,8 8 4 13 7 SE 1019,9 8 0 0,0
28.03.2017 05:00:00 6,7 3,5 5,3 11 6 13 7 SE 1019,9 8 0 0,0
28.03.2017 04:00:00 7,4 4,0 5,7 10 5 13 7 SE 1019,9 8 0 0,0
28.03.2017 03:00:00 7,4 4,5 6,0 11 6 15 8 ESE 1020,2 7 0 0,0
28.03.2017 02:00:00 8,0 4,8 5,9 11 6 14 8 SE 1020,3 7 0 0,0
28.03.2017 01:00:00 8,0 4,9 4,3 8 5 10 6 SSE 1020,2 7 0 0,0
28.03.2017 00:00:00 8,6 5,0 4,5 6 3 8 4 SSE 1020,2 9 0 0,0
27.03.2017 23:00:00 9,7 5,5 4,8 6 3 8 4 SSE 1020,5 10 0 0,0
27.03.2017 22:00:00 9,8 5,0 4,9 5 3 6 3 SE 1020,4 12 0 0,0
27.03.2017 21:00:00 12,0 5,6 - 0 0 8 4 N 1019,7 15 - 0,0
27.03.2017 20:00:00 15,1 5,3 10,9 6 3 15 8 SE 1019,6 18 50 0,0
27.03.2017 19:00:00 16,2 5,2 16,4 12 6 22 12 SE 1019,3 18 60 0,0
27.03.2017 18:00:00 17,1 3,4 19,9 12 7 22 12 ESE 1019,1 19 60 0,0
27.03.2017 17:00:00 17,4 5,0 18,4 11 6 22 12 ESE 1019,5 14 60 0,0
27.03.2017 16:00:00 17,2 3,5 18,7 15 8 29 15 SE 1020,0 19 60 0,0
27.03.2017 15:00:00 17,1 5,4 21,9 18 10 29 16 E 1020,6 16 60 0,0
27.03.2017 14:00:00 16,5 5,7 21,0 16 8 23 13 E 1021,0 18 60 0,0
27.03.2017 13:00:00 15,3 6,3 20,0 11 6 16 9 E 1021,5 17 60 0,0
27.03.2017 12:00:00 13,7 4,8 16,8 10 5 17 9 E 1021,9 12 60 0,0
27.03.2017 11:00:00 11,9 6,6 14,0 13 7 22 12 ESE 1022,2 10 60 0,0
27.03.2017 10:00:00 10,5 5,0 9,4 8 4 15 8 E 1021,9 9 60 0,0
27.03.2017 09:00:00 6,4 4,4 2,5 3 2 4 2 S 1021,8 7 52 0,0
27.03.2017 08:00:00 4,1 2,1 2,0 3 2 5 3 SSW 1021,6 4,3 0 0,0
27.03.2017 07:00:00 5,3 2,8 2,6 3 2 17 9 S 1021,3 7 0 0,0
27.03.2017 06:00:00 6,8 3,4 4,7 10 5 16 9 E 1021,4 8 0 0,0
27.03.2017 05:00:00 6,3 3,5 5,0 11 6 15 8 ESE 1021,9 7 0 0,0
27.03.2017 04:00:00 7,7 3,7 5,8 8 4 15 8 SE 1021,8 9 0 0,0
27.03.2017 03:00:00 8,0 4,0 6,2 10 5 17 9 ESE 1022,1 9 0 0,0
27.03.2017 02:00:00 7,9 4,1 6,1 9 5 19 11 ESE 1022,4 9 0 0,0
27.03.2017 01:00:00 8,7 4,7 6,7 10 6 21 11 E 1022,8 11 0 0,0
27.03.2017 00:00:00 9,5 4,9 8,0 10 6 24 13 E 1022,9 11 0 0,0
26.03.2017 23:00:00 10,6 5,4 9,5 18 10 34 18 ENE 1022,7 12 0 0,0
26.03.2017 22:00:00 11,2 5,5 10,4 21 12 34 19 ENE 1022,3 13 0 0,0
26.03.2017 21:00:00 11,9 6,0 11,1 19 11 35 19 ENE 1021,6 12 0 0,0
26.03.2017 20:00:00 13,4 6,3 12,7 16 9 28 15 NE 1021,2 16 5 0,0
26.03.2017 19:00:00 14,9 5,7 14,6 13 7 26 14 ENE 1021,2 27 5 0,0
26.03.2017 18:00:00 15,6 5,2 16,1 19 11 31 17 E 1021,1 20 25 0,0
26.03.2017 17:00:00 17,1 6,3 17,9 18 10 32 17 ENE 1021,3 20 58 0,0
26.03.2017 16:00:00 16,7 5,6 18,2 20 11 34 18 E 1021,8 18 60 0,0
26.03.2017 15:00:00 15,9 5,2 20,4 21 12 31 17 ENE 1021,9 19 60 0,0
26.03.2017 14:00:00 14,8 4,8 18,9 20 11 32 18 E 1022,3 19 60 0,0
26.03.2017 13:00:00 14,0 4,6 17,7 18 10 31 17 E 1022,4 18 60 0,0
26.03.2017 12:00:00 12,7 3,1 15,4 22 12 38 21 E 1022,5 18 60 0,0
26.03.2017 11:00:00 11,1 3,1 10,2 23 12 35 19 E 1022,4 18 50 0,0
26.03.2017 10:00:00 8,7 2,5 7,8 19 11 43 23 E 1022,7 19 60 0,0
26.03.2017 09:00:00 7,0 1,3 5,4 24 13 41 22 E 1022,2 20 22 0,0
26.03.2017 08:00:00 6,2 0,7 5,3 21 12 36 20 E 1022,2 33 0 0,0
26.03.2017 07:00:00 6,5 0,4 5,4 19 11 36 19 E 1022,1 43 0 0,0
26.03.2017 06:00:00 6,5 0,2 5,4 18 10 32 18 E 1021,8 49 0 0,0
26.03.2017 05:00:00 6,9 0,1 5,9 22 12 35 19 E 1022,0 50 0 0,0
26.03.2017 04:00:00 7,4 0,4 6,0 19 11 37 20 E 1022,3 48 0 0,0
26.03.2017 03:00:00 7,8 0,3 6,7 24 13 39 21 ENE 1022,5 50 0 0,0
26.03.2017 02:00:00 8,4 0,4 7,1 25 13 40 22 ENE 1022,7 52 0 0,0
26.03.2017 01:00:00 8,8 0,2 7,7 22 12 42 23 ENE 1022,7 56 0 0,0
26.03.2017 00:00:00 10,1 -0,1 8,5 24 13 37 20 E 1022,8 60 0 0,0
25.03.2017 23:00:00 9,9 0,5 8,4 18 10 40 21 E 1022,5 56 0 0,0
25.03.2017 22:00:00 9,7 1,3 8,3 23 13 36 19 ENE 1022,5 44 0 0,0
25.03.2017 21:00:00 9,8 2,2 8,3 19 10 34 19 NE 1022,5 37 0 0,0
25.03.2017 20:00:00 10,5 2,3 9,5 18 10 37 20 NE 1022,7 39 46 0,0
25.03.2017 19:00:00 11,8 3,3 11,8 19 11 44 24 NE 1022,7 28 60 0,0
25.03.2017 18:00:00 13,0 4,4 14,5 23 12 45 24 NE 1023,0 19 60 0,0
25.03.2017 17:00:00 14,0 4,3 14,6 25 14 56 30 NE 1023,3 17 60 0,0
25.03.2017 16:00:00 15,0 2,2 - 34 18 57 31 ENE 1023,9 18 - 0,0
25.03.2017 15:00:00 14,7 -0,6 17,8 29 16 57 31 ENE 1024,7 14 60 0,0
25.03.2017 14:00:00 14,0 1,9 16,7 30 16 56 30 ENE 1025,6 14 60 0,0
25.03.2017 13:00:00 12,6 2,7 14,8 35 19 56 30 ENE 1026,3 12 60 0,0
25.03.2017 12:00:00 11,3 3,3 13,1 28 15 53 29 ENE 1027,3 12 60 0,0
25.03.2017 11:00:00 10,4 2,7 12,4 29 16 55 30 ENE 1027,4 12 60 0,0
25.03.2017 10:00:00 9,7 3,0 8,5 19 11 46 25 E 1027,8 13 60 0,0
25.03.2017 09:00:00 7,4 2,5 4,7 11 6 30 16 E 1028,3 10 53 0,0
25.03.2017 08:00:00 5,8 1,9 4,5 12 7 34 19 E 1028,4 11 0 0,0
25.03.2017 07:00:00 6,2 2,1 5,2 19 10 34 18 ENE 1028,2 12 0 0,0
25.03.2017 06:00:00 6,8 2,3 5,1 21 11 33 18 E 1027,9 13 0 0,0
25.03.2017 05:00:00 7,2 2,7 6,1 19 11 35 19 E 1028,4 13 0 0,0
25.03.2017 04:00:00 7,9 2,8 6,8 16 8 42 23 E 1028,7 14 0 0,0
25.03.2017 03:00:00 8,6 3,2 7,7 29 16 47 26 ENE 1028,9 15 0 0,0
25.03.2017 02:00:00 9,1 3,5 8,1 24 13 44 24 ENE 1028,9 15 0 0,0
25.03.2017 01:00:00 9,5 4,1 8,1 19 10 31 17 ENE 1029,0 12 0 0,0
25.03.2017 00:00:00 9,6 4,6 7,9 18 10 28 15 ENE 1029,2 12 0 0,0
24.03.2017 23:00:00 9,5 4,9 8,0 14 7 27 15 E 1029,0 12 0 0,0
24.03.2017 22:00:00 9,9 5,3 8,3 17 9 33 18 ENE 1028,7 12 0 0,0
24.03.2017 21:00:00 9,4 5,4 8,2 13 7 33 18 E 1028,0 11 0 0,0
24.03.2017 20:00:00 10,0 6,0 9,3 20 11 37 20 NE 1027,4 9 47 0,0
24.03.2017 19:00:00 11,5 6,6 11,7 20 11 37 20 NE 1026,8 8 60 0,0
24.03.2017 18:00:00 13,2 7,2 14,8 22 12 35 19 NNE 1026,1 8 57 0,0
24.03.2017 17:00:00 14,8 8,1 15,3 19 10 36 19 ENE 1026,3 8 44 0,0
24.03.2017 16:00:00 15,0 7,3 15,6 23 12 36 19 ENE 1026,2 11 48 0,0
24.03.2017 15:00:00 14,1 7,6 14,6 18 10 34 19 ENE 1026,2 4,8 48 0,0
24.03.2017 14:00:00 - - - - - - - - - - - -

tt = Température de l'air
td = dewpoint
tt 5cm = Température de l'air 5cm
ff = Vitesse du vent
fx = gusts
dd = Direction du vent
ppp = reduced air pressure
vv = visibility
sd = Ensoleillement
rr = Quantités de précipitations

stations d'obs. à proximité